HULIANWANG DIGUI-144

导读 | 豆包AI

“HULIANWANG DIGUI-144”是中国发射的低轨互联网卫星,于北京时间2026年1月13日发射升空。作为中国低轨卫星互联网星座的组成部分,它将与其他在轨卫星协同组网,助力构建全球覆盖的天基网络,为全球用户提供更稳定的互联网通信服务,推动天地一体化信息网络建设。

基本信息
目录编号:
67442
目录名称:
HULIANWANG DIGUI-144
国际标识:
2026-007H
轨道中心:
EARTH
卫星名称:
HULIANWANG DIGUI-144
卫星全名:
HULIANWANG DIGUI-144
卫星状态:
在轨 (已飞行132 天)
发射日期:
2026-01-13 UTC
国别 :
中国 (CN)
星等 :
--
轨道信息
数据来源 国际轨道数据
星历时间: 2026-05-24T02:20:31+0800
1天前
查看轨道信息
半长轴: 7527.436km
偏心率: 0.0000834
轨道倾角: 50.007°
近地点辐角 280.565°
升交点赤经 173.160°
平近点角 79.513°
近地点: 1148.671km
远地点: 1149.927km
周期: 108.325分钟
每日圈数: 13.293281
详细信息
使用方式:
暂无
2D轨道图
3D轨道图
轨道高度分析图
轨道倾角分析图
轨道综合分析图
查看轨道综合分析图